Home > Weather > Mildura > Past weeks

Flag for Australia Weather for the Past 2 Weeks in Mildura, Victoria, Australia

Now
95 °F

Extremely hot.


Feels Like: 91 °F
Forecast: 69 / 100 °F
Wind: 6 mph from Southwest

Location: Mildura Airport

Current Time: Feb 9, 2016 at 5:16:56 PM

Latest Report: Feb 9, 2016 at 3:00 PM


Visibility: N/A

Pressure: 29.99 "Hg

Humidity: 19%

Dew point: 46 °F

Location of MilduraLocation

Historic Weather in Mildura — Graph

°F

Mildura Temperature Yesterday

Maximum temperature yesterday: 99 °F (at 4:00 PM)
Minimum temperature yesterday: 69 °F (at 7:00 AM)
Average temperature yesterday: 85 °F

High & Low Weather Summary for the Past Weeks

 TemperatureHumidityPressure
High99 °F (Jan 27, 6:00 PM)94% (Jan 30, 7:00 AM)30.09 "Hg (Jan 30, 7:00 AM)
Low56 °F (Jan 30, 7:00 AM)12% (Jan 27, 3:00 PM)29.38 "Hg (Feb 2, 6:00 PM)
Average76 °F43%29.80 "Hg
* Reported Jan 25 3:00 PM — Feb 9 3:00 PM, Mildura, Weather by CustomWeather, © 2016

Note: Actual official high and low records may vary slightly from our data, if they occured in-between our weather recording intervals... More about our weather records

Advertising

Mildura Weather History for the Previous 24 Hours

 ConditionsComfort  
Time TempWeatherWind HumidityBarometerVisibility
3:00 PM
Tue, Feb 9
95 °FExtremely hot.6 mph19%29.99 "HgN/A
7:00 AM66 °FMild.9 mph53%30.06 "HgN/A
6:00 AM67 °FMild.8 mph49%30.05 "HgN/A
5:00 AM68 °FMild.7 mph45%30.04 "HgN/A
4:00 AM71 °FMild.8 mph40%30.03 "HgN/A
3:00 AM74 °FMild.9 mph35%30.03 "HgN/A
2:00 AM77 °FMild.10 mph31%30.03 "HgN/A
1:00 AM80 °FPleasantly warm.10 mph23%30.03 "HgN/A
12:00 AM83 °FPleasantly warm.9 mph19%30.03 "HgN/A
11:00 PM
Mon, Feb 8
85 °FPleasantly warm.9 mph24%30.02 "HgN/A
10:00 PM88 °FPleasantly warm.9 mph24%30.01 "HgN/A
9:00 PM91 °FHot.9 mph22%29.99 "HgN/A
8:00 PM95 °FExtremely hot.10 mph19%29.98 "HgN/A
7:00 PM98 °FExtremely hot.8 mph15%29.96 "HgN/A
6:00 PM98 °FExtremely hot.8 mph14%29.97 "HgN/A
5:00 PM98 °FExtremely hot.6 mph15%29.98 "HgN/A
Weather by CustomWeather, © 2016

See weather overviewHow to use our weather pages